Location: Dompnac
(44.5644°N, 4.1026°E)
Time: 10:17:54
(UTC+00:00)

Cosmos 2026 Rocket - Pass Details

Date: 24 January 2021
Orbit: 940 x 1000 km, 82.9° (Epoch: 26 February)

Event Time Altitude Azimuth Distance (km) Brightness Sun altitude
Rises 04:05:10 0° 3° (N) 3,712 7.1 -32.8°
Reaches altitude 10° 04:08:31 10° 20° (NNE) 2,767 6.6 -32.3°
Maximum altitude 04:12:59 20° 66° (ENE) 2,150 6.4 -31.5°
Drops below altitude 10° 04:17:26 10° 110° (ESE) 2,768 7.1 -30.7°
Sets 04:20:46 0° 128° (SE) 3,713 7.7 -30.1°
